SL-8 DEB, 1549

Orbit data source: Space-Track

SL-8 DEB, 1549 is space debris in LEO originally from a launch on Mon, 15 Mar 1965 UTC launched from the Tyuratam Missile And Space Complex (TTMTR). Debris objects in space refer to the collection of defunct objects orbiting the Earth. Examples of debris include non-operational satellites, rocket bodies, and fragments generated from explosions, collisions, or faulty payload assembly.

Loading next visibility...
Identifier
1549, 1965-020CV
Orbit
LEO
Country
Flag of CISCIS
Related business
Manufacturer
Unknown
Mission
Spacecraft
Bus & Motor
Unknown
Mass
Unknown
Launch date (UTC)
1965-03-15 (61 years ago)
Launch vehicle
Unknown
Launch site
Tyuratam Missile And Space Complex (TTMTR)
Object type
Payload
Rocket body
Debris
Shape & HBR
Unknown shape, 0.1 m
Radar Cross Section
Medium (>0.1 m² and <1 m²)

Expand to show TLE details & history
Last TLE update: 12 hours ago

TLE from 12 hours ago
0 SL-8 DEB
1 01549U 65020CV  26140.94027847 -.00000014  00000-0  12202-3 0  9992
2 01549  56.1649 359.4332 0841282  66.4568 302.2415 12.64521865811491
Epoch: 2026-05-20T22:34Z
TLE epoch observation values (Epoch: 2026-05-20T22:34:00.059Z)
Latitude
-0.00001°
Longitude
142.34032°
Altitude
1,098.168 km
Speed
7.447 km/s
True Right ascension
23h 57m 43s
True Declination
0° 00' 00"
Sunlit
Object was in daylight at epoch
Visualization orbit readout
Latitude
Unknown
Longitude
Unknown
Altitude
Unknown
Speed
Unknown
Apparent Right ascension
Unknown
Apparent Declination
Unknown
Sunlit
N/A
Visualization observer readout
Local Sidereal Time
19:26:34
Azimuth
Unknown
Elevation
Unknown
Doppler factor
Unknown
Orbital elements
Apogee altitude
2,058.85 km
Perigee altitude
749.432 km
Semi-major axis
7,782.278 km
Eccentricity
0.08413
Inclination
56.1649°
RAAN
359.4332°
Arg. of periapsis
66.4568°
True anomaly
293.63687°
Mean anomaly
302.2415°
Eccentric anomaly
297.98493°
Mean motion
3.16143 °/min
Orbital period
113.87 mins
BSTAR
0.00012202
Loading maneuver chart data...
Computing Atmospheric mass density...
Loading historical data...
Loading historical data...
Loading historical data...
Loading historical data...
Loading historical data...
Loading historical data...
Loading historical data...

Documentation

Showing up to 5 results
|